Flag for U.S.A. Weather past 2 weeks in Fairfax, Virginia, U.S.A.

Now
73 °F

Low clouds.


Feels Like: 71 °F
Forecast: 69 / 85 °F
Wind: 7 mph from South

Location: Washington-Dulles International Airport

Current Time: Jul 22, 2014 at 9:48:04 AM

Latest Report: Jul 22, 2014 at 8:52 AM


Visibility: 10 mi

Pressure: 30.19 "Hg

Humidity: 88%

Dew point: 69 °F

Location of FairfaxLocation

Historic Weather in Fairfax — Graph

°F

Fairfax temperature yesterday

Maximum temperature yesterday: 81 °F (at 3:52 PM)
Minimum temperature yesterday: 69 °F (at 5:52 AM)
Average temperature yesterday: 74 °F

Past Weeks' High & Low Weather Summary

 TemperatureHumidityPressure
High91 °F (Jul 8, 3:52 PM)100% (Jul 10, 4:52 AM)30.24 "Hg (Jul 10, 4:52 AM)
Low56 °F (Jul 17, 5:52 AM)37% (Jul 17, 6:52 PM)29.72 "Hg (Jul 8, 5:52 PM)
Average74 °F72%30.02 "Hg
* Reported Jul 7 7:52 AM — Jul 22 7:52 AM, Fairfax, Weather by CustomWeather, © 2014

Note: Actual official high and low records may vary slightly from our data, if they occured in-between our weather recording intervals... More about our weather records

Advertising

Fairfax weather history for previous 24 hours

 ConditionsComfort  
Time TempWeatherWind HumidityBarometerVisibility
7:52 AM
Jul 22
72 °FLow clouds.5 mph91%30.19 "Hg10 mi
6:52 AM71 °FLow clouds.No wind93%30.17 "Hg10 mi
5:52 AM71 °FLow clouds.5 mph93%30.16 "Hg7 mi
4:52 AM71 °FPartly cloudy.3 mph93%30.15 "Hg10 mi
3:52 AM71 °FPassing clouds.3 mph93%30.15 "Hg10 mi
2:52 AM71 °FPassing clouds.3 mph93%30.16 "Hg10 mi
1:52 AM71 °FPassing clouds.3 mph90%30.17 "Hg10 mi
12:52 AM71 °FPassing clouds.5 mph90%30.17 "Hg10 mi
11:52 PM
Jul 21
72 °FPassing clouds.5 mph84%30.17 "Hg10 mi
10:52 PM73 °FPassing clouds.5 mph81%30.17 "Hg10 mi
9:52 PM73 °FPassing clouds.5 mph81%30.17 "Hg10 mi
8:52 PM75 °FBroken clouds.5 mph79%30.15 "Hg10 mi
7:52 PM77 °FBroken clouds.7 mph74%30.15 "Hg10 mi
6:52 PM78 °FBroken clouds.7 mph71%30.15 "Hg10 mi
5:52 PM80 °FBroken clouds.9 mph64%30.14 "Hg10 mi
4:52 PM81 °FPartly sunny.8 mph62%30.14 "Hg10 mi
3:52 PM81 °FMore clouds than sun.5 mph60%30.14 "Hg10 mi
2:52 PM80 °FPartly sunny.6 mph62%30.15 "Hg10 mi
1:52 PM79 °FPartly sunny.7 mph65%30.16 "Hg10 mi
12:52 PM77 °FBroken clouds.8 mph66%30.18 "Hg10 mi
11:52 AM76 °FCloudy.7 mph72%30.19 "Hg10 mi
10:52 AM74 °FMostly cloudy.7 mph74%30.19 "Hg10 mi
9:52 AM72 °FMostly cloudy.5 mph78%30.19 "Hg10 mi
Weather by CustomWeather, © 2014

See weather overviewHow to use our weather pages